Time,TemperatureF,DewpointF,PressureIn,WindDirection,WindDirectionDegrees,WindSpeedMPH,WindSpeedGustMPH,Humidity,HourlyPrecipIn,Conditions,Clouds,dailyrainin,SoftwareType,DateUTC
2013-05-20 00:03:00,59.0,57.0,30.12,SSE,167,0.0,0.0,94,0.00,,,0.07,,2013-05-20 04:03:00,
2013-05-20 00:13:00,59.0,57.0,30.12,SSE,167,0.0,0.0,94,0.00,,,0.07,,2013-05-20 04:13:00,
2013-05-20 00:23:00,59.0,57.0,30.11,SSE,167,0.0,0.0,94,0.00,,,0.07,,2013-05-20 04:23:00,
2013-05-20 00:33:00,59.0,58.0,30.11,SSE,167,0.0,0.0,95,0.00,,,0.07,,2013-05-20 04:33:00,
2013-05-20 00:42:00,59.0,58.0,30.11,SSE,167,0.0,0.0,95,0.00,,,0.07,,2013-05-20 04:42:00,
2013-05-20 00:52:00,59.0,58.0,30.11,SSE,167,0.0,0.0,95,0.00,,,0.07,,2013-05-20 04:52:00,
2013-05-20 01:02:00,58.0,57.0,30.11,SSE,167,0.0,0.0,95,0.00,,,0.07,,2013-05-20 05:02:00,
2013-05-20 01:12:00,58.0,57.0,30.11,SSE,167,0.0,0.0,95,0.00,,,0.07,,2013-05-20 05:12:00,
2013-05-20 01:22:00,58.0,57.0,30.12,SSE,167,0.0,0.0,95,0.00,,,0.07,,2013-05-20 05:22:00,
2013-05-20 01:32:00,58.0,57.0,30.12,SSE,167,0.0,0.0,95,0.00,,,0.07,,2013-05-20 05:32:00,
2013-05-20 01:42:00,58.0,57.0,30.12,SSE,167,0.0,0.0,95,0.00,,,0.07,,2013-05-20 05:42:00,
2013-05-20 01:52:00,58.0,57.0,30.11,SSE,167,0.0,0.0,95,0.00,,,0.07,,2013-05-20 05:52:00,
2013-05-20 02:01:00,58.0,57.0,30.11,SSE,167,0.0,0.0,96,0.00,,,0.07,,2013-05-20 06:01:00,
2013-05-20 02:11:00,58.0,57.0,30.11,SSE,167,0.0,0.0,96,0.00,,,0.07,,2013-05-20 06:11:00,
2013-05-20 02:21:00,58.0,57.0,30.11,SSE,167,0.0,0.0,96,0.00,,,0.07,,2013-05-20 06:21:00,
2013-05-20 02:32:00,58.0,57.0,30.11,SSE,167,0.0,0.0,96,0.00,,,0.07,,2013-05-20 06:32:00,
2013-05-20 02:42:00,58.0,57.0,30.11,SSE,167,0.0,0.0,96,0.00,,,0.07,,2013-05-20 06:42:00,
2013-05-20 02:52:00,58.0,57.0,30.11,SSE,167,0.0,0.0,96,0.00,,,0.07,,2013-05-20 06:52:00,
2013-05-20 03:02:00,58.0,57.0,30.11,SSE,167,0.0,0.0,96,0.00,,,0.07,,2013-05-20 07:02:00,
2013-05-20 03:12:00,58.0,57.0,30.11,SSE,167,0.0,0.0,96,0.00,,,0.07,,2013-05-20 07:12:00,
2013-05-20 03:21:00,58.0,57.0,30.11,SSE,167,0.0,0.0,97,0.00,,,0.07,,2013-05-20 07:21:00,
2013-05-20 03:32:00,58.0,57.0,30.11,SSE,167,0.0,0.0,96,0.00,,,0.07,,2013-05-20 07:32:00,
2013-05-20 03:42:00,58.0,57.0,30.11,SSE,167,0.0,0.0,96,0.00,,,0.07,,2013-05-20 07:42:00,
2013-05-20 03:52:00,58.0,57.0,30.12,SSE,167,0.0,0.0,97,0.00,,,0.07,,2013-05-20 07:52:00,
2013-05-20 04:01:00,58.0,57.0,30.12,SSE,167,0.0,0.0,97,0.00,,,0.07,,2013-05-20 08:01:00,
2013-05-20 04:11:00,58.0,57.0,30.12,SSE,167,0.0,0.0,97,0.00,,,0.07,,2013-05-20 08:11:00,
2013-05-20 04:21:00,58.0,57.0,30.12,SSE,167,0.0,0.0,97,0.00,,,0.07,,2013-05-20 08:21:00,
2013-05-20 04:32:00,58.0,57.0,30.12,SSE,167,0.0,0.0,97,0.00,,,0.02,,2013-05-20 08:32:00,
2013-05-20 04:42:00,58.0,57.0,30.12,SSE,167,0.0,0.0,97,0.00,,,0.02,,2013-05-20 08:42:00,
2013-05-20 04:52:00,58.0,57.0,30.12,SSE,167,0.0,0.0,96,0.00,,,0.02,,2013-05-20 08:52:00,
2013-05-20 05:02:00,58.0,57.0,30.12,SSE,167,0.0,0.0,96,0.00,,,0.02,,2013-05-20 09:02:00,
2013-05-20 05:12:00,58.0,57.0,30.12,SSE,167,0.0,0.0,96,0.00,,,0.02,,2013-05-20 09:12:00,
2013-05-20 05:22:00,58.0,57.0,30.13,SSE,167,0.0,0.0,97,0.00,,,0.02,,2013-05-20 09:22:00,
2013-05-20 05:33:00,58.0,57.0,30.11,SSE,167,0.0,1.0,97,0.00,,,0.02,,2013-05-20 09:33:00,
2013-05-20 05:43:00,58.0,57.0,30.11,SSE,167,0.0,1.0,97,0.00,,,0.02,,2013-05-20 09:43:00,
2013-05-20 05:52:00,58.0,57.0,30.11,SSE,167,0.0,0.0,97,0.00,,,0.02,,2013-05-20 09:52:00,
2013-05-20 06:03:00,58.0,57.0,30.12,SSE,167,0.0,0.0,97,0.00,,,0.02,,2013-05-20 10:03:00,
2013-05-20 06:12:00,58.0,57.0,30.12,SSE,167,0.0,0.0,97,0.00,,,0.02,,2013-05-20 10:12:00,
2013-05-20 06:22:00,58.0,57.0,30.12,SSE,167,0.0,0.0,97,0.00,,,0.02,,2013-05-20 10:22:00,
2013-05-20 06:33:00,58.0,57.0,30.12,SSE,167,0.0,0.0,97,0.00,,,0.02,,2013-05-20 10:33:00,
2013-05-20 06:42:00,58.0,57.0,30.12,SSE,167,0.0,0.0,97,0.00,,,0.02,,2013-05-20 10:42:00,
2013-05-20 06:52:00,58.0,57.0,30.13,SSE,167,0.0,0.0,97,0.00,,,0.02,,2013-05-20 10:52:00,
2013-05-20 07:02:00,58.0,57.0,30.13,SSE,167,0.0,0.0,97,0.00,,,0.02,,2013-05-20 11:02:00,
2013-05-20 07:12:00,58.0,57.0,30.13,SSE,167,0.0,0.0,97,0.00,,,0.02,,2013-05-20 11:12:00,
2013-05-20 07:22:00,57.0,56.0,30.14,SSE,167,0.0,0.0,97,0.00,,,0.02,,2013-05-20 11:22:00,
2013-05-20 07:32:00,57.0,56.0,30.14,SSE,167,0.0,0.0,97,0.00,,,0.02,,2013-05-20 11:32:00,
2013-05-20 07:42:00,57.0,56.0,30.14,SSE,167,0.0,0.0,97,0.00,,,0.02,,2013-05-20 11:42:00,
2013-05-20 07:51:00,57.0,56.0,30.15,SSE,167,0.0,0.0,97,0.00,,,0.02,,2013-05-20 11:51:00,
2013-05-20 08:01:00,57.0,56.0,30.15,SSE,167,0.0,0.0,97,0.00,,,0.02,,2013-05-20 12:01:00,
2013-05-20 08:12:00,57.0,56.0,30.15,SSE,167,0.0,0.0,97,0.00,,,0.02,,2013-05-20 12:12:00,
2013-05-20 08:21:00,57.0,56.0,30.15,SSE,167,0.0,0.0,97,0.00,,,0.02,,2013-05-20 12:21:00,
2013-05-20 08:32:00,57.0,56.0,30.15,SSE,167,0.0,0.0,97,0.00,,,0.02,,2013-05-20 12:32:00,
2013-05-20 08:42:00,57.0,56.0,30.15,SSE,167,0.0,0.0,97,0.00,,,0.02,,2013-05-20 12:42:00,
2013-05-20 08:52:00,58.0,57.0,30.16,SSE,167,0.0,0.0,97,0.00,,,0.02,,2013-05-20 12:52:00,
2013-05-20 09:01:00,59.0,58.0,30.16,SSE,167,0.0,0.0,97,0.00,,,0.02,,2013-05-20 13:01:00,
2013-05-20 09:11:00,59.0,58.0,30.16,SSE,167,0.0,0.0,97,0.00,,,0.02,,2013-05-20 13:11:00,
2013-05-20 09:22:00,59.0,58.0,30.16,SSE,167,0.0,1.0,97,0.00,,,0.02,,2013-05-20 13:22:00,
2013-05-20 09:32:00,60.0,59.0,30.16,ESE,108,0.0,2.0,97,0.00,,,0.02,,2013-05-20 13:32:00,
2013-05-20 09:42:00,60.0,59.0,30.16,ESE,108,0.0,2.0,97,0.00,,,0.02,,2013-05-20 13:42:00,
2013-05-20 09:52:00,61.0,60.0,30.16,ESE,108,0.0,1.0,97,0.00,,,0.02,,2013-05-20 13:52:00,
2013-05-20 10:01:00,62.0,61.0,30.17,East,101,0.0,2.0,96,0.00,,,0.02,,2013-05-20 14:01:00,
2013-05-20 10:11:00,62.0,61.0,30.17,East,101,0.0,2.0,96,0.00,,,0.02,,2013-05-20 14:11:00,
2013-05-20 10:22:00,62.0,61.0,30.16,ENE,78,0.0,3.0,95,0.00,,,0.02,,2013-05-20 14:22:00,
2013-05-20 10:32:00,63.0,61.0,30.16,ENE,73,0.0,3.0,94,0.00,,,0.02,,2013-05-20 14:32:00,
2013-05-20 10:42:00,63.0,61.0,30.16,ENE,73,0.0,3.0,94,0.00,,,0.02,,2013-05-20 14:42:00,
2013-05-20 10:52:00,64.0,62.0,30.16,ENE,73,0.0,1.0,92,0.00,,,0.02,,2013-05-20 14:52:00,
2013-05-20 11:01:00,66.0,64.0,30.16,NE,37,0.0,2.0,92,0.00,,,0.02,,2013-05-20 15:01:00,
2013-05-20 11:12:00,66.0,64.0,30.16,NE,37,0.0,2.0,92,0.00,,,0.02,,2013-05-20 15:12:00,
2013-05-20 11:22:00,67.0,63.0,30.16,NE,41,0.0,2.0,86,0.00,,,0.02,,2013-05-20 15:22:00,
2013-05-20 11:33:00,69.0,65.0,30.16,ENE,73,0.0,2.0,86,0.00,,,0.02,,2013-05-20 15:33:00,
2013-05-20 11:42:00,69.0,65.0,30.16,ENE,73,0.0,2.0,86,0.00,,,0.02,,2013-05-20 15:42:00,
2013-05-20 11:53:00,71.0,64.0,30.16,East,79,0.0,2.0,79,0.00,,,0.02,,2013-05-20 15:53:00,
2013-05-20 12:03:00,74.0,65.0,30.15,East,79,0.0,2.0,74,0.00,,,0.02,,2013-05-20 16:03:00,
2013-05-20 12:13:00,74.0,65.0,30.15,East,79,0.0,2.0,74,0.00,,,0.02,,2013-05-20 16:13:00,
2013-05-20 12:23:00,76.0,66.0,30.15,East,97,0.0,3.0,71,0.00,,,0.02,,2013-05-20 16:23:00,
2013-05-20 12:33:00,78.0,65.0,30.14,NE,43,0.0,2.0,65,0.00,,,0.02,,2013-05-20 16:33:00,
2013-05-20 12:42:00,78.0,65.0,30.14,NE,43,0.0,2.0,65,0.00,,,0.02,,2013-05-20 16:42:00,
2013-05-20 12:52:00,79.0,64.0,30.14,SE,136,1.0,4.0,61,0.00,,,0.02,,2013-05-20 16:52:00,
2013-05-20 13:03:00,80.0,66.0,30.14,SSE,150,0.0,2.0,63,0.00,,,0.02,,2013-05-20 17:03:00,
2013-05-20 13:12:00,80.0,66.0,30.14,SSE,150,0.0,2.0,63,0.00,,,0.02,,2013-05-20 17:12:00,
2013-05-20 13:22:00,80.0,66.0,30.13,NE,56,0.0,2.0,62,0.00,,,0.02,,2013-05-20 17:22:00,
2013-05-20 13:33:00,81.0,68.0,30.12,ENE,70,0.0,2.0,64,0.00,,,0.02,,2013-05-20 17:33:00,
2013-05-20 13:45:00,81.0,68.0,30.12,ENE,70,0.0,2.0,64,0.00,,,0.02,,2013-05-20 17:45:00,
2013-05-20 13:53:00,82.0,66.0,30.11,East,91,1.0,4.0,59,0.00,,,0.02,,2013-05-20 17:53:00,
2013-05-20 14:02:00,83.0,66.0,30.11,East,89,0.0,1.0,57,0.00,,,0.02,,2013-05-20 18:02:00,
2013-05-20 14:12:00,83.0,66.0,30.11,East,89,0.0,1.0,57,0.00,,,0.02,,2013-05-20 18:12:00,
2013-05-20 14:23:00,82.0,63.0,30.11,NNW,347,0.0,3.0,52,0.00,,,0.02,,2013-05-20 18:23:00,
2013-05-20 14:33:00,82.0,63.0,30.11,SW,224,2.0,5.0,52,0.00,,,0.02,,2013-05-20 18:33:00,
2013-05-20 14:42:00,82.0,63.0,30.11,SW,224,2.0,5.0,52,0.00,,,0.02,,2013-05-20 18:42:00,
2013-05-20 14:55:00,82.0,63.0,30.11,South,182,1.0,6.0,53,0.00,,,0.02,,2013-05-20 18:55:00,
2013-05-20 15:04:00,83.0,64.0,30.10,SSW,207,2.0,8.0,52,0.00,,,0.02,,2013-05-20 19:04:00,
2013-05-20 15:11:00,83.0,64.0,30.10,SSW,207,2.0,8.0,52,0.00,,,0.02,,2013-05-20 19:11:00,
2013-05-20 15:21:00,83.0,60.0,30.10,WSW,252,1.0,3.0,46,0.00,,,0.02,,2013-05-20 19:21:00,
2013-05-20 15:33:00,83.0,65.0,30.08,SSW,200,0.0,4.0,55,0.00,,,0.00,,2013-05-20 19:33:00,
2013-05-20 15:42:00,83.0,65.0,30.08,SSW,200,0.0,4.0,55,0.00,,,0.00,,2013-05-20 19:42:00,
2013-05-20 15:52:00,83.0,63.0,30.09,NW,304,1.0,5.0,51,0.00,,,0.00,,2013-05-20 19:52:00,
2013-05-20 16:01:00,82.0,64.0,30.08,NW,321,0.0,6.0,55,0.00,,,0.00,,2013-05-20 20:01:00,
2013-05-20 16:12:00,82.0,64.0,30.08,NW,321,0.0,6.0,55,0.00,,,0.00,,2013-05-20 20:12:00,
2013-05-20 16:21:00,80.0,62.0,30.08,SSE,161,1.0,9.0,55,0.00,,,0.00,,2013-05-20 20:21:00,
2013-05-20 16:32:00,79.0,65.0,30.08,WSW,253,0.0,6.0,62,0.00,,,0.00,,2013-05-20 20:32:00,
2013-05-20 16:42:00,78.0,63.0,30.07,South,184,0.0,3.0,61,0.00,,,0.00,,2013-05-20 20:42:00,
2013-05-20 16:52:00,78.0,63.0,30.07,South,184,0.0,3.0,61,0.00,,,0.00,,2013-05-20 20:52:00,
2013-05-20 17:01:00,78.0,63.0,30.07,South,174,0.0,2.0,61,0.00,,,0.00,,2013-05-20 21:01:00,
2013-05-20 17:11:00,78.0,63.0,30.07,South,174,0.0,2.0,61,0.00,,,0.00,,2013-05-20 21:11:00,
2013-05-20 17:21:00,77.0,63.0,30.06,WNW,293,0.0,3.0,61,0.00,,,0.00,,2013-05-20 21:21:00,
2013-05-20 17:33:00,78.0,64.0,30.06,West,276,1.0,4.0,62,0.00,,,0.00,,2013-05-20 21:33:00,
2013-05-20 17:43:00,79.0,65.0,30.06,SSW,211,0.0,6.0,63,0.00,,,0.00,,2013-05-20 21:43:00,
2013-05-20 17:53:00,79.0,65.0,30.06,SSW,211,0.0,6.0,63,0.00,,,0.00,,2013-05-20 21:53:00,
2013-05-20 18:02:00,80.0,67.0,30.06,SSW,196,1.0,10.0,64,0.00,,,0.00,,2013-05-20 22:02:00,
2013-05-20 18:13:00,80.0,67.0,30.06,SSW,196,1.0,10.0,64,0.00,,,0.00,,2013-05-20 22:13:00,
2013-05-20 18:23:00,79.0,66.0,30.06,SSW,213,0.0,6.0,64,0.00,,,0.00,,2013-05-20 22:23:00,
2013-05-20 18:33:00,77.0,67.0,30.06,WSW,239,1.0,8.0,71,0.00,,,0.00,,2013-05-20 22:33:00,
2013-05-20 18:42:00,77.0,67.0,30.06,WSW,239,1.0,8.0,71,0.00,,,0.00,,2013-05-20 22:42:00,
2013-05-20 18:52:00,76.0,66.0,30.06,South,176,3.0,8.0,71,0.00,,,0.00,,2013-05-20 22:52:00,
2013-05-20 19:03:00,74.0,65.0,30.08,North,353,0.0,10.0,73,0.00,,,0.00,,2013-05-20 23:03:00,
2013-05-20 19:12:00,74.0,65.0,30.08,North,353,0.0,10.0,73,0.00,,,0.00,,2013-05-20 23:12:00,
2013-05-20 19:22:00,72.0,63.0,30.07,ESE,103,0.0,3.0,74,0.00,,,0.00,,2013-05-20 23:22:00,
2013-05-20 19:32:00,72.0,63.0,30.07,WSW,254,1.0,6.0,73,0.00,,,0.00,,2013-05-20 23:32:00,
2013-05-20 19:42:00,72.0,63.0,30.07,WSW,254,1.0,6.0,73,0.00,,,0.00,,2013-05-20 23:42:00,
2013-05-20 19:52:00,72.0,64.0,30.06,WSW,253,0.0,3.0,75,0.00,,,0.00,,2013-05-20 23:52:00,
2013-05-20 20:01:00,71.0,63.0,30.06,SSW,200,0.0,6.0,77,0.00,,,0.00,,2013-05-21 00:01:00,
2013-05-20 20:11:00,71.0,63.0,30.06,SSW,200,0.0,6.0,77,0.00,,,0.00,,2013-05-21 00:11:00,
2013-05-20 20:22:00,70.0,63.0,30.06,SSW,200,0.0,1.0,79,0.00,,,0.00,,2013-05-21 00:22:00,
2013-05-20 20:32:00,69.0,63.0,30.06,SSW,200,0.0,0.0,82,0.00,,,0.00,,2013-05-21 00:32:00,
2013-05-20 20:42:00,68.0,63.0,30.06,SSW,200,0.0,0.0,83,0.00,,,0.00,,2013-05-21 00:42:00,
2013-05-20 20:52:00,68.0,63.0,30.06,SSW,200,0.0,0.0,83,0.00,,,0.00,,2013-05-21 00:52:00,
2013-05-20 21:01:00,67.0,62.0,30.06,SSW,200,0.0,0.0,84,0.00,,,0.00,,2013-05-21 01:01:00,
2013-05-20 21:12:00,67.0,62.0,30.06,SSW,200,0.0,0.0,84,0.00,,,0.00,,2013-05-21 01:12:00,
2013-05-20 21:22:00,67.0,62.0,30.07,SSW,200,0.0,0.0,85,0.00,,,0.00,,2013-05-21 01:22:00,
2013-05-20 21:32:00,67.0,62.0,30.07,SSW,200,0.0,0.0,85,0.00,,,0.00,,2013-05-21 01:32:00,
2013-05-20 21:42:00,67.0,62.0,30.07,SSW,200,0.0,0.0,85,0.00,,,0.00,,2013-05-21 01:42:00,
2013-05-20 21:52:00,65.0,61.0,30.07,SSW,200,0.0,0.0,88,0.00,,,0.00,,2013-05-21 01:52:00,
2013-05-20 22:02:00,64.0,60.0,30.07,SSW,200,0.0,0.0,87,0.00,,,0.00,,2013-05-21 02:02:00,
2013-05-20 22:11:00,64.0,60.0,30.07,SSW,200,0.0,0.0,87,0.00,,,0.00,,2013-05-21 02:11:00,
2013-05-20 22:21:00,64.0,59.0,30.08,SSW,200,0.0,0.0,85,0.00,,,0.00,,2013-05-21 02:21:00,
2013-05-20 22:32:00,64.0,60.0,30.08,SSW,200,0.0,1.0,88,0.00,,,0.00,,2013-05-21 02:32:00,
2013-05-20 22:42:00,64.0,60.0,30.09,SSW,200,0.0,0.0,87,0.00,,,0.00,,2013-05-21 02:42:00,
2013-05-20 22:52:00,64.0,60.0,30.09,SSW,200,0.0,0.0,87,0.00,,,0.00,,2013-05-21 02:52:00,
2013-05-20 23:02:00,63.0,59.0,30.09,SSW,200,0.0,0.0,88,0.00,,,0.00,,2013-05-21 03:02:00,
2013-05-20 23:11:00,63.0,59.0,30.09,SSW,200,0.0,0.0,88,0.00,,,0.00,,2013-05-21 03:11:00,
2013-05-20 23:21:00,63.0,60.0,30.09,SSW,200,0.0,0.0,89,0.00,,,0.00,,2013-05-21 03:21:00,
2013-05-20 23:33:00,63.0,60.0,30.09,SSW,200,0.0,0.0,90,0.00,,,0.00,,2013-05-21 03:33:00,
2013-05-20 23:43:00,62.0,59.0,30.09,SSW,200,0.0,0.0,90,0.00,,,0.00,,2013-05-21 03:43:00,
2013-05-20 23:53:00,62.0,59.0,30.09,SSW,200,0.0,0.0,90,0.00,,,0.00,,2013-05-21 03:53:00,